When you browse on this site, cookies collect data to enhance your experience and personalize the content and advertising you see.
Visit our Privacy Policy to learn more. By continuing to use the site, you agree to this use of cookies and data.
  • en France
  • Liste des pays
  • À 7 jours
  • Température de l'eau
  • Carte satellitaire
  • Carte météo
  • Widgets météo
  • user-avatar
    Se connecter

    Météo par heure à Sankt Pölten

    Ce jour, 26 Juin, Mercredi

    Heure Température Précipitation Vent Pression Humidité
    00:00 +22°C° 0 mm 1 m/s 742 mmHg 88%
    01:00 +22°C° 0 mm 1 m/s 742 mmHg 91%
    02:00 +21°C° 0 mm 1 m/s 742 mmHg 92%
    03:00 +21°C° 0 mm 1 m/s 742 mmHg 92%
    04:00 +21°C° 0 mm 1 m/s 742 mmHg 93%
    05:00 +23°C° 0 mm 1 m/s 742 mmHg 87%
    06:00 +23°C° 0 mm 0 m/s 742 mmHg 81%
    07:00 +25°C° 0 mm 0 m/s 743 mmHg 75%
    08:00 +27°C° 0 mm 0 m/s 742 mmHg 68%
    09:00 +31°C° 0 mm 1 m/s 742 mmHg 62%
    10:00 +32°C° 0 mm 1 m/s 742 mmHg 55%
    11:00 +33°C° 0 mm 1 m/s 742 mmHg 52%
    12:00 +34°C° 0 mm 1 m/s 742 mmHg 49%
    13:00 +36°C° 0 mm 2 m/s 742 mmHg 46%
    14:00 +35°C° 0 mm 1 m/s 742 mmHg 45%
    15:00 +35°C° 0 mm 1 m/s 742 mmHg 45%
    16:00 +35°C° 0 mm 1 m/s 741 mmHg 44%
    17:00 +33°C° 0 mm 1 m/s 741 mmHg 53%
    18:00 +29°C° 0 mm 0 m/s 741 mmHg 63%
    19:00 +27°C° 0 mm 0 m/s 741 mmHg 72%
    20:00 +28°C° 0 mm 1 m/s 741 mmHg 73%
    21:00 +27°C° 0 mm 1 m/s 741 mmHg 73%
    22:00 +26°C° 0 mm 1 m/s 741 mmHg 74%
    23:00 +26°C° 0 mm 1 m/s 741 mmHg 74%

    Demain, 27 Juin, Jeudi

    Heure Température Précipitation Vent Pression Humidité
    00:00 +25°C° 0 mm 2 m/s 741 mmHg 74%
    01:00 +25°C° 0 mm 2 m/s 741 mmHg 74%
    02:00 +25°C° 0 mm 2 m/s 741 mmHg 75%
    03:00 +24°C° 0 mm 2 m/s 740 mmHg 77%
    04:00 +24°C° 0 mm 2 m/s 740 mmHg 79%
    05:00 +25°C° 0 mm 1 m/s 740 mmHg 76%
    06:00 +26°C° 0 mm 1 m/s 740 mmHg 74%
    07:00 +28°C° 0 mm 1 m/s 740 mmHg 72%
    08:00 +28°C° 0.1 mm 1 m/s 740 mmHg 71%
    09:00 +29°C° 0.1 mm 1 m/s 740 mmHg 70%
    10:00 +30°C° 0.1 mm 2 m/s 740 mmHg 69%
    11:00 +30°C° 1.5 mm 2 m/s 740 mmHg 71%
    12:00 +30°C° 1.5 mm 2 m/s 740 mmHg 74%
    13:00 +30°C° 1.5 mm 2 m/s 739 mmHg 76%
    14:00 +30°C° 2.5 mm 2 m/s 739 mmHg 78%
    15:00 +29°C° 2.5 mm 2 m/s 739 mmHg 80%
    16:00 +29°C° 2.5 mm 2 m/s 739 mmHg 81%
    17:00 +27°C° 0.6 mm 2 m/s 739 mmHg 81%
    18:00 +26°C° 0.6 mm 2 m/s 739 mmHg 82%
    19:00 +24°C° 0.6 mm 2 m/s 739 mmHg 82%
    20:00 +23°C° 0 mm 1 m/s 739 mmHg 80%
    21:00 +21°C° 0 mm 1 m/s 740 mmHg 78%
    22:00 +18°C° 0 mm 0 m/s 740 mmHg 77%
    23:00 +17°C° 0 mm 0 m/s 740 mmHg 78%

    Après-demain, 28 Juin, Vendredi

    Heure Température Précipitation Vent Pression Humidité
    00:00 +18°C° 0 mm 1 m/s 740 mmHg 79%
    01:00 +16°C° 0 mm 1 m/s 740 mmHg 80%
    02:00 +15°C° 0 mm 1 m/s 740 mmHg 82%
    03:00 +15°C° 0 mm 1 m/s 740 mmHg 84%
    04:00 +14°C° 0 mm 1 m/s 740 mmHg 86%
    05:00 +16°C° 0 mm 1 m/s 740 mmHg 82%
    06:00 +18°C° 0 mm 1 m/s 740 mmHg 78%
    07:00 +20°C° 0 mm 1 m/s 740 mmHg 75%
    08:00 +21°C° 0 mm 1 m/s 740 mmHg 68%
    09:00 +23°C° 0 mm 1 m/s 740 mmHg 61%
    10:00 +24°C° 0 mm 1 m/s 740 mmHg 54%
    11:00 +25°C° 0 mm 1 m/s 740 mmHg 52%
    12:00 +26°C° 0 mm 1 m/s 739 mmHg 50%
    13:00 +27°C° 0 mm 1 m/s 739 mmHg 48%
    14:00 +27°C° 0 mm 1 m/s 739 mmHg 49%
    15:00 +27°C° 0 mm 2 m/s 739 mmHg 50%
    16:00 +27°C° 0 mm 2 m/s 739 mmHg 51%
    17:00 +25°C° 0 mm 1 m/s 739 mmHg 58%
    18:00 +24°C° 0 mm 1 m/s 739 mmHg 66%
    19:00 +22°C° 0 mm 1 m/s 739 mmHg 74%
    20:00 +21°C° 0 mm 1 m/s 739 mmHg 76%
    21:00 +19°C° 0 mm 1 m/s 740 mmHg 78%
    22:00 +18°C° 0 mm 1 m/s 740 mmHg 80%
    23:00 +16°C° 0 mm 1 m/s 740 mmHg 82%

    29 Juin, Samedi

    Heure Température Précipitation Vent Pression Humidité
    00:00 +16°C° 0 mm 1 m/s 740 mmHg 84%
    01:00 +15°C° 0 mm 1 m/s 740 mmHg 86%
    02:00 +15°C° 0 mm 1 m/s 740 mmHg 88%
    03:00 +15°C° 0 mm 1 m/s 740 mmHg 89%
    04:00 +14°C° 0 mm 1 m/s 740 mmHg 90%
    05:00 +16°C° 0 mm 1 m/s 740 mmHg 85%
    06:00 +19°C° 0 mm 1 m/s 740 mmHg 79%
    07:00 +21°C° 0 mm 1 m/s 740 mmHg 73%
    08:00 +21°C° 0 mm 2 m/s 740 mmHg 68%
    09:00 +23°C° 0 mm 2 m/s 740 mmHg 63%
    10:00 +25°C° 0 mm 3 m/s 740 mmHg 57%
    11:00 +25°C° 0 mm 3 m/s 740 mmHg 54%
    12:00 +26°C° 0 mm 4 m/s 740 mmHg 51%
    13:00 +27°C° 0 mm 4 m/s 739 mmHg 48%
    14:00 +27°C° 0 mm 4 m/s 739 mmHg 48%
    15:00 +27°C° 0 mm 4 m/s 739 mmHg 47%
    16:00 +27°C° 0 mm 4 m/s 739 mmHg 47%
    17:00 +25°C° 0 mm 3 m/s 739 mmHg 54%
    18:00 +22°C° 0 mm 3 m/s 739 mmHg 62%
    19:00 +21°C° 0 mm 2 m/s 739 mmHg 70%
    20:00 +20°C° 0 mm 2 m/s 739 mmHg 71%
    21:00 +18°C° 0 mm 2 m/s 739 mmHg 73%
    22:00 +17°C° 0 mm 2 m/s 739 mmHg 74%
    23:00 +16°C° 0 mm 2 m/s 739 mmHg 77%

    30 Juin, Dimanche

    Heure Température Précipitation Vent Pression Humidité
    00:00 +16°C° 0 mm 2 m/s 739 mmHg 80%
    01:00 +15°C° 0 mm 2 m/s 739 mmHg 83%
    02:00 +15°C° 0 mm 1 m/s 739 mmHg 83%
    03:00 +15°C° 0 mm 1 m/s 739 mmHg 83%
    04:00 +14°C° 0 mm 1 m/s 739 mmHg 83%
    05:00 +16°C° 0 mm 1 m/s 739 mmHg 78%
    06:00 +19°C° 0 mm 1 m/s 739 mmHg 72%
    07:00 +21°C° 0 mm 1 m/s 739 mmHg 66%
    08:00 +24°C° 0 mm 1 m/s 739 mmHg 61%
    09:00 +26°C° 0 mm 1 m/s 739 mmHg 56%
    10:00 +28°C° 0 mm 1 m/s 739 mmHg 51%
    11:00 +29°C° 0 mm 1 m/s 739 mmHg 49%
    12:00 +30°C° 0 mm 1 m/s 739 mmHg 47%
    13:00 +32°C° 0 mm 1 m/s 739 mmHg 45%
    14:00 +32°C° 0 mm 1 m/s 738 mmHg 45%
    15:00 +32°C° 0 mm 1 m/s 738 mmHg 46%
    16:00 +32°C° 0 mm 1 m/s 738 mmHg 46%
    17:00 +31°C° 0 mm 1 m/s 738 mmHg 55%
    18:00 +29°C° 0 mm 1 m/s 738 mmHg 65%
    19:00 +27°C° 0 mm 1 m/s 738 mmHg 74%
    20:00 +26°C° 0 mm 1 m/s 738 mmHg 76%
    21:00 +25°C° 0 mm 1 m/s 738 mmHg 78%
    22:00 +23°C° 0 mm 2 m/s 738 mmHg 80%
    23:00 +23°C° 0 mm 2 m/s 738 mmHg 80%

    1 Juillet, Lundi

    Heure Température Précipitation Vent Pression Humidité
    00:00 +21°C° 0 mm 2 m/s 738 mmHg 81%
    01:00 +21°C° 0 mm 2 m/s 738 mmHg 82%
    02:00 +21°C° 0 mm 2 m/s 738 mmHg 82%
    03:00 +22°C° 0 mm 1 m/s 738 mmHg 83%
    04:00 +22°C° 0 mm 1 m/s 737 mmHg 83%
    05:00 +23°C° 0 mm 1 m/s 737 mmHg 79%
    06:00 +25°C° 0 mm 1 m/s 737 mmHg 74%
    07:00 +25°C° 0 mm 0 m/s 737 mmHg 69%
    08:00 +29°C° 0 mm 1 m/s 737 mmHg 63%
    09:00 +31°C° 0 mm 1 m/s 737 mmHg 56%
    10:00 +33°C° 0 mm 1 m/s 737 mmHg 50%
    11:00 +34°C° 0 mm 1 m/s 737 mmHg 47%
    12:00 +35°C° 0 mm 1 m/s 736 mmHg 44%
    13:00 +36°C° 0 mm 2 m/s 736 mmHg 41%
    14:00 +36°C° 0 mm 2 m/s 736 mmHg 41%
    15:00 +36°C° 0 mm 2 m/s 735 mmHg 40%
    16:00 +36°C° 0 mm 3 m/s 735 mmHg 40%
    17:00 +34°C° 0.1 mm 3 m/s 735 mmHg 51%
    18:00 +31°C° 0.1 mm 3 m/s 735 mmHg 61%
    19:00 +29°C° 0.1 mm 3 m/s 735 mmHg 72%
    20:00 +27°C° 0.3 mm 3 m/s 735 mmHg 75%
    21:00 +25°C° 0.3 mm 3 m/s 736 mmHg 79%
    22:00 +23°C° 0.3 mm 2 m/s 736 mmHg 83%
    23:00 +23°C° 0 mm 2 m/s 736 mmHg 83%
    Voir plus